N3TJJ-11 Weather Reports


time (UTC)temp
F
wind
direction
speed
knots
gust
knots
rain 1hr
in
rain 24hr
in
rain mn
in
humidity
%
barometer
mb
20260504081353 47 244 4.3 7.0 0.00 0.00 0.00 51 1013.3
20260504081147 47 252 4.3 6.1 0.00 0.00 0.00 51 1013.4
20260504080347 47 244 4.3 6.1 0.00 0.00 0.00 52 1013.4
20260504070348 47 225 4.3 5.2 0.00 0.00 0.00 52 1013.5
20260504050349 48 242 3.5 7.0 0.00 0.00 0.00 51 1013.8
20260504045947 48 246 4.3 7.0 0.00 0.00 0.00 51 1013.8
20260504045348 48 248 4.3 7.0 0.00 0.00 0.00 51 1013.8
20260504044747 48 242 3.5 4.3 0.00 0.00 0.00 52 1013.8
20260504044348 48 247 4.3 6.1 0.00 0.00 0.00 52 1013.8
20260504043547 48 233 4.3 7.0 0.00 0.00 0.00 51 1013.8
20260504043348 48 236 4.3 7.0 0.00 0.00 0.00 50 1013.8
20260504042347 49 246 3.5 4.3 0.00 0.00 0.00 50 1013.7
20260504041348 48 239 3.5 5.2 0.00 0.00 0.00 50 1013.6
20260504041147 48 242 3.5 4.3 0.00 0.00 0.00 51 1013.5
20260504040348 48 255 3.5 3.5 0.00 0.00 0.00 50 1013.4
20260504035947 49 251 3.5 4.3 0.00 0.00 0.00 50 1013.4
20260504035348 49 243 3.5 4.3 0.00 0.00 0.00 50 1013.5
20260504034747 49 233 2.6 3.5 0.00 0.00 0.00 50 1013.4
20260504034348 49 243 2.6 3.5 0.00 0.00 0.00 50 1013.4
20260504033547 49 240 2.6 3.5 0.00 0.00 0.00 50 1013.4
20260504033348 49 246 2.6 4.3 0.00 0.00 0.00 50 1013.4
20260504032347 49 253 3.5 3.5 0.00 0.00 0.00 49 1013.4
20260504031348 49 241 2.6 4.3 0.00 0.00 0.00 49 1013.3
20260504031147 49 255 2.6 4.3 0.00 0.00 0.00 49 1013.3
20260504030348 50 244 3.5 4.3 0.00 0.00 0.00 48 1013.3
20260504025947 50 250 3.5 6.1 0.00 0.00 0.00 48 1013.2
20260504025348 50 244 2.6 3.5 0.00 0.00 0.00 48 1013.2
20260504024747 49 243 2.6 3.5 0.00 0.00 0.00 48 1013.1
20260504024351 49 248 2.6 2.6 0.00 0.00 0.00 48 1013.1
20260504023547 50 249 3.5 4.3 0.00 0.00 0.00 48 1013.2
20260504023349 50 238 3.5 4.3 0.00 0.00 0.00 47 1013.2
20260504022347 50 244 2.6 3.5 0.00 0.00 0.00 48 1013.3
20260504021348 50 249 2.6 2.6 0.00 0.00 0.00 47 1013.3
20260504021147 50 248 2.6 3.5 0.00 0.00 0.00 47 1013.3
20260504020349 50 247 2.6 3.5 0.00 0.00 0.00 47 1013.3
20260504015947 50 245 3.5 3.5 0.00 0.00 0.00 47 1013.3
20260504015348 50 242 2.6 4.3 0.00 0.00 0.00 47 1013.3
20260504014747 50 240 2.6 3.5 0.00 0.00 0.00 48 1013.2
20260504014349 50 240 3.5 3.5 0.00 0.00 0.00 47 1013.2
20260504013547 50 242 3.5 4.3 0.00 0.00 0.00 47 1013.1
20260504013348 50 238 2.6 4.3 0.00 0.00 0.00 48 1013.1
20260504012347 50 248 1.7 2.6 0.00 0.00 0.00 48 1013.0
20260504011349 50 251 1.7 2.6 0.00 0.00 0.00 47 1012.9
20260504011147 51 246 1.7 2.6 0.00 0.00 0.00 47 1012.8
20260504010348 51 237 2.6 3.5 0.00 0.00 0.00 47 1012.9
20260504005947 51 244 1.7 3.5 0.00 0.00 0.00 46 1012.9
20260504005350 51 265 1.7 1.7 0.00 0.00 0.00 47 1012.8
20260504004747 51 273 1.7 1.7 0.00 0.00 0.00 46 1012.7
20260504004348 51 257 1.7 2.6 0.00 0.00 0.00 46 1012.6
20260504003547 51 254 1.7 2.6 0.00 0.00 0.00 47 1012.7
20260504003348 51 254 1.7 2.6 0.00 0.00 0.00 47 1012.6
20260504002347 52 277 1.7 2.6 0.00 0.00 0.00 46 1012.4
20260504001349 52 271 1.7 2.6 0.00 0.00 0.00 45 1012.4
20260504001147 52 271 2.6 2.6 0.00 0.00 0.00 45 1012.4
20260504000348 52 281 2.6 3.5 0.00 0.00 0.00 46 1012.2
20260503235947 52 281 3.5 4.3 0.00 0.00 0.00 44 1012.2
20260503235349 53 293 3.5 3.5 0.00 0.00 0.00 46 1012.1
20260503234747 53 292 4.3 7.8 0.00 0.00 0.00 44 1012.1
20260503234348 53 297 3.5 7.8 0.00 0.00 0.00 44 1012.0
20260503233547 54 290 2.6 3.5 0.00 0.00 0.00 44 1012.0
20260503233348 54 280 2.6 3.5 0.00 0.00 0.00 43 1012.0
20260503232347 55 299 4.3 7.0 0.00 0.00 0.00 39 1012.0
20260503231348 56 295 5.2 8.7 0.00 0.00 0.00 39 1012.0
20260503231147 56 292 4.3 7.8 0.00 0.00 0.00 39 1012.0
20260503230348 56 338 4.3 7.8 0.00 0.00 0.00 38 1012.0
20260503225947 56 302 6.1 7.8 0.00 0.00 0.00 39 1012.0
20260503225348 56 290 5.2 9.6 0.00 0.00 0.00 39 1012.0
20260503224747 56 296 6.1 7.8 0.00 0.00 0.00 38 1012.0
20260503224348 56 316 7.0 13.0 0.00 0.00 0.00 37 1012.0
20260503223547 56 311 7.0 10.4 0.00 0.00 0.00 40 1011.9
20260503223349 56 298 7.8 13.9 0.00 0.00 0.00 38 1011.9
20260503222347 56 297 7.0 11.3 0.00 0.00 0.00 39 1012.0
20260503221348 57 288 5.2 11.3 0.00 0.00 0.00 37 1012.0
20260503221147 57 309 4.3 9.6 0.00 0.00 0.00 38 1012.0
20260503220349 57 355 4.3 7.8 0.00 0.00 0.00 36 1012.0
20260503215947 57 355 4.3 8.7 0.00 0.00 0.00 36 1012.0
20260503215348 56 10 6.1 8.7 0.00 0.00 0.00 39 1012.0
20260503214747 56 327 7.8 13.0 0.00 0.00 0.00 37 1012.0
20260503214349 56 295 7.8 13.0 0.00 0.00 0.00 37 1011.9
20260503213547 57 330 8.7 17.4 0.00 0.00 0.00 36 1011.9
20260503213349 57 317 7.0 13.0 0.00 0.00 0.00 38 1011.9
20260503212348 56 12 4.3 8.7 0.00 0.00 0.00 38 1011.9
20260503211349 55 288 5.2 8.7 0.00 0.00 0.00 38 1011.9
20260503211148 55 313 6.1 8.7 0.00 0.00 0.00 37 1011.9
20260503210349 56 311 7.8 11.3 0.00 0.00 0.00 35 1011.9
20260503205948 56 308 7.8 13.0 0.00 0.00 0.00 39 1011.9
20260503205349 57 355 6.1 13.0 0.00 0.00 0.00 37 1011.9
20260503204748 57 280 4.3 8.7 0.00 0.00 0.00 38 1011.8
20260503204349 57 315 6.1 8.7 0.00 0.00 0.00 34 1011.8
20260503203548 56 323 6.1 13.0 0.00 0.00 0.00 36 1011.9
20260503203349 56 326 6.1 13.0 0.00 0.00 0.00 37 1011.9
20260503202348 57 343 7.8 15.6 0.00 0.00 0.00 35 1012.0
20260503201349 56 279 7.0 12.2 0.00 0.00 0.00 39 1011.8
20260503201148 56 277 6.1 16.5 0.00 0.00 0.00 38 1012.0
20260503200349 55 297 8.7 13.9 0.00 0.00 0.00 35 1012.2
20260503195948 56 271 8.7 13.0 0.00 0.00 0.00 39 1012.2
20260503195349 55 333 9.6 17.4 0.00 0.00 0.00 40 1012.3
20260503194748 55 333 8.7 18.2 0.00 0.00 0.00 37 1012.3
20260503194349 55 289 7.8 18.2 0.00 0.00 0.00 37 1012.3
20260503193548 55 333 7.8 13.9 0.00 0.00 0.00 38 1012.5
20260503193349 55 322 8.7 13.9 0.00 0.00 0.00 38 1012.5
20260503192348 54 262 9.6 19.1 0.00 0.00 0.00 37 1012.6
20260503191350 54 348 5.2 8.7 0.00 0.00 0.00 40 1012.6
20260503191148 54 0 5.2 8.7 0.00 0.00 0.00 39 1012.7
20260503190349 54 355 7.0 13.9 0.00 0.00 0.00 38 1012.7
20260503185948 55 355 7.0 15.6 0.00 0.00 0.00 38 1012.8
20260503185349 54 316 8.7 14.8 0.00 0.00 0.00 39 1012.8
20260503184748 54 288 7.8 15.6 0.00 0.00 0.00 41 1012.9
20260503184349 53 343 7.0 11.3 0.00 0.00 0.00 43 1012.9
20260503183548 52 321 6.1 10.4 0.00 0.00 0.00 42 1013.1
20260503183349 52 355 7.8 10.4 0.00 0.00 0.00 40 1013.2
20260503182348 53 294 7.0 13.0 0.00 0.00 0.00 39 1013.2
20260503181349 53 325 8.7 13.9 0.00 0.00 0.00 41 1013.1
20260503181148 53 311 8.7 13.9 0.00 0.00 0.00 41 1013.0
20260503180349 53 325 7.0 16.5 0.00 0.00 0.00 40 1013.2
20260503175948 53 331 6.1 14.8 0.00 0.00 0.00 39 1013.3
20260503175349 53 320 6.1 10.4 0.00 0.00 0.00 41 1013.2
20260503174748 52 322 7.8 13.9 0.00 0.00 0.00 41 1013.4
20260503174349 52 355 7.0 13.9 0.00 0.00 0.00 41 1013.2
20260503173548 51 355 8.7 12.2 0.00 0.00 0.00 45 1013.3
20260503173349 50 13 9.6 13.9 0.00 0.00 0.00 46 1013.4
20260503172348 51 329 7.8 14.8 0.00 0.00 0.00 41 1013.4
20260503171349 51 301 9.6 18.2 0.00 0.00 0.00 40 1013.6
20260503171148 51 344 9.6 18.2 0.00 0.00 0.00 42 1013.6
20260503170349 50 342 10.4 15.6 0.00 0.00 0.00 41 1013.4
20260503150350 47 348 7.0 12.2 0.00 0.00 0.00 47 1014.0
20260503131349 43 5 7.0 12.2 0.00 0.00 0.00 62 1014.0
20260503131148 42 15 7.8 10.4 0.00 0.00 0.00 62 1013.9
20260503130349 43 10 7.8 12.2 0.00 0.00 0.00 61 1013.8
20260503110349 39 330 5.2 9.6 0.00 0.00 0.00 68 1012.9